Home > Weather > Arrecife > Past weeks

Flag for Spain Past Weather in Arrecife, Canary Islands, Spain — Yesterday and Last 2 Weeks

Now
73 °F

Passing clouds.


Feels Like: 73 °F
Forecast: 72 / 83 °F
Wind: 23 mph from North

Location: Lanzarote / Aeropuerto

Current Time: Jul 31, 2016 at 1:27:16 AM

Latest Report: Jul 31, 2016 at 1:00 AM


Visibility: N/A

Pressure: 30.01 "Hg

Humidity: 83%

Dew Point: 68 °F

Location of ArrecifeLocation

Past Weather in Arrecife — Graph

°F

Arrecife Temperature Yesterday

Maximum temperature yesterday: 81 °F (at 1:30 PM)
Minimum temperature yesterday: 72 °F (at 1:00 AM)
Average temperature yesterday: 75 °F

High & Low Weather Summary for the Past Weeks

 TemperatureHumidityPressure
High90 °F (Jul 16, 4:30 PM)94% (Jul 26, 6:00 AM)30.07 "Hg (Jul 26, 6:00 AM)
Low70 °F (Jul 17, 6:30 AM)35% (Jul 16, 10:00 AM)29.86 "Hg (Jul 18, 7:00 PM)
Average78 °F70%29.97 "Hg
* Reported Jul 16 12:00 AM — Jul 31 12:00 AM, Arrecife, Weather by CustomWeather, © 2016

Note: Actual official high and low records may vary slightly from our data, if they occured in-between our weather recording intervals... More about our weather records

Advertising

Arrecife Weather History for the Previous 24 Hours

Scroll right to see more
 ConditionsComfort  
Time TempWeatherWind HumidityBarometerVisibility
12:00 AM
Sun, Jul 31
73 °FPassing clouds.22 mph83%30.04 "HgN/A
11:30 PM
Sat, Jul 30
73 °FPassing clouds.24 mph83%30.04 "HgN/A
11:00 PM73 °FPassing clouds.26 mph83%30.01 "HgN/A
10:30 PM73 °FPassing clouds.21 mph83%29.98 "HgN/A
10:00 PM73 °FPassing clouds.25 mph78%29.98 "HgN/A
9:30 PM73 °FPassing clouds.25 mph83%29.95 "HgN/A
9:00 PM73 °FPassing clouds.26 mph83%29.95 "HgN/A
8:30 PM73 °FPassing clouds.24 mph83%29.95 "HgN/A
8:00 PM73 °FPassing clouds.29 mph78%29.95 "HgN/A
7:30 PM75 °FPassing clouds.24 mph74%29.95 "HgN/A
7:00 PM77 °FPassing clouds.23 mph74%29.98 "HgN/A
6:30 PM77 °FPassing clouds.20 mph69%30.01 "HgN/A
6:00 PM77 °FPassing clouds.21 mph74%30.01 "HgN/A
5:30 PM77 °FPassing clouds.21 mph74%30.01 "HgN/A
5:00 PM77 °FPassing clouds.22 mph69%29.98 "HgN/A
4:30 PM79 °FPassing clouds.29 mph65%29.98 "HgN/A
4:00 PM79 °FPassing clouds.26 mph65%29.98 "HgN/A
3:30 PM81 °FPassing clouds.26 mph62%29.98 "HgN/A
3:00 PM81 °FPassing clouds.25 mph62%29.98 "HgN/A
2:30 PM81 °FPassing clouds.23 mph58%30.01 "HgN/A
2:00 PM81 °FPassing clouds.16 mph62%30.01 "HgN/A
1:30 PM81 °FPassing clouds.21 mph62%29.98 "HgN/A
1:00 PM77 °FPassing clouds.31 mph69%30.01 "HgN/A
12:30 PM75 °FPassing clouds.28 mph74%30.01 "HgN/A
12:00 PM75 °FPassing clouds.23 mph74%30.01 "HgN/A
11:30 AM75 °FPassing clouds.22 mph74%29.98 "HgN/A
11:00 AM75 °FPassing clouds.22 mph74%30.04 "HgN/A
10:30 AM75 °FPassing clouds.20 mph74%30.04 "HgN/A
10:00 AM73 °FPassing clouds.16 mph78%30.01 "HgN/A
9:30 AM73 °FPassing clouds.10 mph78%30.01 "HgN/A
9:00 AM73 °FPassing clouds.23 mph78%29.98 "HgN/A
8:30 AM72 °FPassing clouds.24 mph83%29.98 "HgN/A
8:00 AM72 °FPassing clouds.22 mph83%29.95 "HgN/A
7:30 AM72 °FPassing clouds.21 mph83%29.98 "HgN/A
7:00 AM72 °FPassing clouds.20 mph83%29.98 "HgN/A
6:30 AM72 °FPassing clouds.22 mph83%29.95 "HgN/A
6:00 AM72 °FPassing clouds.16 mph83%29.98 "HgN/A
1:00 AM72 °FPassing clouds.18 mph83%30.01 "HgN/A
Weather by CustomWeather, © 2016

See weather overviewHow to use our weather pages